Location: Saluda
(35.2377°N, 82.3468°W)
Time: 14:24:12
(UTC+00:00)

SR - Pass Details

Date: 05 October 2022
Orbit: 577 x 875 km, 66.7° (Epoch: 28 November)

Event Time Altitude Azimuth Distance (km) Brightness Sun altitude
Rises 12:00:10 0° 318° (NW) 3,231 ? 5.8°
Reaches altitude 10° 12:03:05 10° 304° (NW) 2,244 ? 6.4°
Maximum altitude 12:06:58 22° 255° (WSW) 1,501 ? 7.2°
Drops below altitude 10° 12:10:36 10° 204° (SSW) 2,083 ? 7.9°
Sets 12:13:13 0° 189° (S) 2,939 ? 8.4°
